Date String (YYYY-MM-DD hh:mm:ss) UTC,Instrument flags,Ambient pressure (hPa),Sample flow (lpm),Bypass flow (lpm),Sample temperature (°C),Ambient temperature (°C),ASC tube jacket temperature (°C),LED temperature (°C),Box temperature (°C),Sample RH (%),Span deviation,Mass concentration (μg/m³),Mass concentration (μg/m³),Mass concentration (μg/m³)
DateTimeUTC,F1_M11,P_M11,Q1_M11,Q2_M11,T1_M11,T2_M11,T3_M11,T4_M11,T5_M11,U1_M11,ZSPAN_M11,X2_M11,X0_M11,X1_M11
2022-11-10 13:00:00,,0822.1,5.01,0.00,22.2,21.2,00.0,31.0,24.0,09.1,0000.0,0000.40,0001.20,0000.16
2022-11-10 13:01:00,,0822.1,4.99,0.00,22.2,20.9,00.0,31.0,24.0,09.1,0000.0,0000.39,0002.30,0000.15
2022-11-10 13:02:00,,0822.1,4.99,0.00,22.1,20.7,00.0,31.0,23.9,09.1,0000.0,0000.41,0002.38,0000.15
2022-11-10 13:03:00,,0822.1,5.01,0.00,22.1,20.6,00.0,31.0,23.8,09.1,0000.0,0000.42,0003.08,0000.15
2022-11-10 13:04:00,,0822.1,5.00,0.00,22.0,20.5,00.0,31.0,23.8,09.1,0000.0,0000.39,0002.95,0000.15
2022-11-10 13:05:00,,0822.1,5.00,0.00,22.0,20.3,00.0,30.9,23.7,09.0,0000.0,0000.40,0002.94,0000.15
2022-11-10 13:06:00,,0822.0,5.00,0.00,21.9,20.1,00.0,30.9,23.6,09.0,0000.0,0000.36,0003.16,0000.15
2022-11-10 13:07:00,,0822.0,5.00,0.00,21.9,20.0,00.0,30.9,23.6,09.0,0000.0,0000.34,0003.11,0000.15
2022-11-10 13:08:00,,0822.0,4.99,0.00,21.8,20.0,00.0,30.8,23.5,09.0,0000.0,0000.39,0003.25,0000.15
2022-11-10 13:09:00,,0821.8,5.00,0.00,21.8,20.0,00.0,30.8,23.5,09.0,0000.0,0000.40,0003.27,0000.15
2022-11-10 13:10:00,,0821.8,5.00,0.00,21.8,20.0,00.0,30.8,23.5,08.9,0000.0,0000.40,0003.27,0000.15
2022-11-10 13:11:00,,0821.8,5.02,0.00,21.8,20.6,00.0,30.8,23.6,08.8,0000.0,0000.39,0003.44,0000.16
2022-11-10 13:12:00,,0821.9,5.00,0.00,21.9,21.7,00.0,30.7,23.9,08.8,0000.0,0000.42,0002.77,0000.16
2022-11-10 13:13:00,,0821.8,4.98,0.00,22.0,21.9,00.0,30.8,24.0,08.7,0000.0,0000.39,0002.51,0000.16
2022-11-10 13:14:00,,0821.8,5.00,0.00,22.0,21.5,00.0,30.8,23.9,08.7,0000.0,0000.36,0001.75,0000.16
2022-11-10 13:15:00,,0821.8,5.00,0.00,22.0,21.2,00.0,30.8,23.9,08.6,0000.0,0000.35,0001.71,0000.16
2022-11-10 13:16:00,,0821.8,5.00,0.00,22.0,20.9,00.0,30.8,23.8,08.6,0000.0,0000.36,0001.76,0000.15
2022-11-10 13:17:00,,0822.0,5.00,0.00,21.9,20.6,00.0,30.8,23.7,08.6,0000.0,0000.37,0001.50,0000.16
2022-11-10 13:18:00,,0822.0,5.00,0.00,21.9,20.4,00.0,30.8,23.6,08.6,0000.0,0000.37,0001.48,0000.15
2022-11-10 13:19:00,,0822.1,5.00,0.00,21.8,20.2,00.0,30.8,23.5,08.6,0000.0,0000.33,0001.39,0000.14
2022-11-10 13:20:00,,0821.9,5.01,0.00,21.8,20.0,00.0,30.7,23.4,08.6,0000.0,0000.31,0001.44,0000.14
2022-11-10 13:21:00,,0822.1,5.01,0.00,21.7,20.0,00.0,30.7,23.4,08.6,0000.0,0000.31,0001.42,0000.14
2022-11-10 13:22:00,,0822.0,5.00,0.00,21.7,20.0,00.0,30.7,23.4,08.7,0000.0,0000.30,0001.31,0000.14
2022-11-10 13:23:00,,0821.8,4.99,0.00,21.7,20.0,00.0,30.7,23.4,08.6,0000.0,0000.29,0000.95,0000.14
2022-11-10 13:24:00,,0821.9,5.00,0.00,21.7,20.3,00.0,30.7,23.5,08.7,0000.0,0000.32,0000.93,0000.14
2022-11-10 13:25:00,,0822.0,5.01,0.00,21.8,21.4,00.0,30.6,23.7,08.7,0000.0,0000.35,0001.10,0000.14
2022-11-10 13:26:00,,0822.0,5.00,0.00,21.9,22.0,00.0,30.7,23.9,08.6,0000.0,0000.35,0001.09,0000.14
2022-11-10 13:27:00,,0822.0,4.98,0.00,21.9,21.7,00.0,30.7,23.9,08.5,0000.0,0000.34,0001.04,0000.14
2022-11-10 13:28:00,,0822.0,5.01,0.00,21.9,21.2,00.0,30.7,23.8,08.3,0000.0,0000.32,0001.00,0000.14
2022-11-10 13:29:00,,0821.9,5.00,0.00,21.9,20.8,00.0,30.7,23.7,08.3,0000.0,0000.31,0000.97,0000.15
2022-11-10 13:30:00,,0821.9,5.01,0.00,21.9,20.5,00.0,30.7,23.6,08.3,0000.0,0000.31,0000.90,0000.15
2022-11-10 13:31:00,,0821.8,4.99,0.00,21.8,20.2,00.0,30.7,23.5,08.2,0000.0,0000.31,0000.94,0000.15
2022-11-10 13:32:00,,0821.8,4.99,0.00,21.8,19.9,00.0,30.7,23.5,08.4,0000.0,0000.44,0002.54,0000.16
2022-11-10 13:33:00,,0821.8,5.00,0.00,21.7,19.9,00.0,30.7,23.4,08.6,0000.0,0000.45,0002.52,0000.17
2022-11-10 13:34:00,,0821.8,5.01,0.00,21.7,20.0,00.0,30.6,23.4,08.5,0000.0,0000.45,0002.53,0000.16
2022-11-10 13:35:00,,0821.9,5.00,0.00,21.7,20.1,00.0,30.6,23.5,08.6,0000.0,0000.42,0002.36,0000.16
2022-11-10 13:36:00,,0822.0,5.00,0.00,21.7,20.0,00.0,30.6,23.4,08.6,0000.0,0000.41,0002.27,0000.17
2022-11-10 13:37:00,,0821.8,5.00,0.00,21.7,19.9,00.0,30.6,23.4,08.5,0000.0,0000.42,0002.31,0000.17
2022-11-10 13:38:00,,0821.8,5.00,0.00,21.6,19.8,00.0,30.6,23.3,08.4,0000.0,0000.42,0002.32,0000.17
2022-11-10 13:39:00,,0821.8,5.01,0.00,21.6,20.2,00.0,30.5,23.4,08.4,0000.0,0000.45,0002.46,0000.18
2022-11-10 13:40:00,,0821.9,4.97,0.00,21.7,21.3,00.0,30.5,23.6,08.4,0000.0,0000.46,0002.49,0000.17
2022-11-10 13:41:00,,0821.8,5.01,0.00,21.8,21.9,00.0,30.6,23.8,08.4,0000.0,0000.47,0002.53,0000.18
2022-11-10 13:42:00,,0821.8,5.00,0.00,21.8,21.4,00.0,30.6,23.8,08.4,0000.0,0000.47,0002.41,0000.18
2022-11-10 13:43:00,,0821.9,5.00,0.00,21.8,21.1,00.0,30.6,23.7,08.4,0000.0,0000.36,0000.88,0000.17
2022-11-10 13:44:00,,0821.8,5.00,0.00,21.8,20.9,00.0,30.6,23.7,08.4,0000.0,0000.35,0000.87,0000.17
2022-11-10 13:45:00,,0821.8,4.99,0.00,21.9,20.7,00.0,30.6,23.7,08.3,0000.0,0000.35,0001.62,0000.17
2022-11-10 13:46:00,,0821.8,5.00,0.00,21.8,20.6,00.0,30.6,23.6,08.3,0000.0,0000.35,0002.75,0000.17
2022-11-10 13:47:00,,0821.8,5.01,0.00,21.8,20.5,00.0,30.6,23.6,08.3,0000.0,0000.35,0002.73,0000.17
2022-11-10 13:48:00,,0821.8,5.01,0.00,21.8,20.4,00.0,30.6,23.5,08.3,0000.0,0000.33,0002.77,0000.17
2022-11-10 13:49:00,,0821.8,4.98,0.00,21.8,20.3,00.0,30.6,23.5,08.2,0000.0,0000.32,0003.04,0000.17
2022-11-10 13:50:00,,0821.8,5.01,0.00,21.8,20.2,00.0,30.6,23.5,08.1,0000.0,0000.30,0002.92,0000.17
2022-11-10 13:51:00,,0821.8,5.01,0.00,21.7,20.0,00.0,30.6,23.4,08.1,0000.0,0000.30,0002.99,0000.17
2022-11-10 13:52:00,,0821.8,5.01,0.00,21.6,19.7,00.0,30.6,23.3,08.1,0000.0,0000.29,0002.99,0000.17
2022-11-10 13:53:00,,0821.9,5.00,0.00,21.6,19.6,00.0,30.6,23.2,08.1,0000.0,0000.29,0003.08,0000.16
2022-11-10 13:54:00,,0821.9,5.01,0.00,21.6,20.2,00.0,30.5,23.3,08.2,0000.0,0000.28,0003.08,0000.16
2022-11-10 13:55:00,,0821.8,5.00,0.00,21.7,21.5,00.0,30.5,23.6,08.1,0000.0,0000.28,0003.07,0000.16
2022-11-10 13:56:00,,0822.3,4.99,0.00,21.8,22.1,00.0,30.5,23.9,08.0,0000.0,0000.28,0002.37,0000.16
2022-11-10 13:57:00,,0821.9,5.00,0.00,21.9,21.7,00.0,30.6,23.9,08.0,0000.0,0000.30,0001.23,0000.16
2022-11-10 13:58:00,,0821.8,5.01,0.00,21.9,21.4,00.0,30.6,23.8,08.0,0000.0,0000.29,0001.22,0000.16
2022-11-10 13:59:00,,0821.8,5.00,0.00,21.9,21.1,00.0,30.6,23.8,08.0,0000.0,0000.29,0001.31,0000.16
